This demonstration page uses our WeatherBlox Daily Observations layout. Learn more.

40.92945, -100.16068

Hourly Observations for November 21, 2019

Temp ( °F °C ) Dew Point ( °F °C ) Humidity (%) Winds ( mph kmh ) Pressure ( in mb ) Visibility ( mi km ) Precip ( " mm )
12:15 am 00:15 Cloudy with Light Drizzle 34 1 32 0 93 93 NNW 22 35 30 1016 10 16.09344 0 0
12:35 am 00:35 Cloudy 34 1 32 -0.2 92 92 NNW 23 37 30 1016 10 16.09344 0.01 0.254
12:55 am 00:55 Cloudy 33 0.8 32 -0.2 93 93 NNW 18 30 30 1016 10 16.09344 0.01 0.254
1:15 am 01:15 Cloudy 34 1 31 -0.5 90 90 NNW 24 39 30 1016 10 16.09344 0 0
1:35 am 01:35 Cloudy 34 1 31 -0.6 89 89 NNW 22 35 30.03 1017 10 16.09344 0 0
1:55 am 01:55 Cloudy 34 1 31 -0.5 90 90 NNW 17 28 30.03 1017 10 16.09344 0 0
2:15 am 02:15 Cloudy 33 0.8 31 -0.7 90 90 NNW 22 35 30.06 1018 10 16.09344 0 0
2:35 am 02:35 Cloudy 33 0.8 31 -0.8 89 89 NNW 23 37 30.06 1018 10 16.09344 0 0
2:55 am 02:55 Cloudy 33 0.8 31 -0.8 89 89 NNW 24 39 30.06 1018 10 16.09344 0 0
3:15 am 03:15 Cloudy 33 0.7 30 -1 89 89 NNW 22 35 30.06 1018 10 16.09344 0 0
3:35 am 03:35 Cloudy 33 0.8 30 -1.2 87 87 NNW 20 31 30.09 1019 10 16.09344 0 0
3:55 am 03:55 Cloudy 33 0.7 30 -1.1 88 88 NNW 15 24 30.15 1021 10 16.09344 0 0
4:15 am 04:15 Cloudy 33 0.6 30 -1.1 89 89 NNW 18 30 30.15 1021 10 16.09344 0 0
4:35 am 04:35 Cloudy 33 0.5 30 -1.1 89 89 NNW 16 26 30.15 1021 10 16.09344 0 0
4:55 am 04:55 Cloudy 33 0.5 30 -1.2 89 89 NNW 20 31 30.15 1021 10 16.09344 0 0
5:15 am 05:15 Cloudy 33 0.5 30 -1.1 89 89 NNW 20 31 30.15 1021 10 16.09344 0 0
5:35 am 05:35 Cloudy 33 0.3 30 -1.2 90 90 NNW 18 30 30.18 1022 10 16.09344 0 0
5:55 am 05:55 Cloudy 32 0.2 30 -1.1 91 91 NNW 17 28 30.18 1022 10 16.09344 0 0
6:15 am 06:15 Cloudy 32 0 29 -1.5 90 90 NNW 22 35 30.18 1022 10 16.09344 0 0
6:35 am 06:35 Cloudy 32 0 28 -2 87 87 N 23 37 30.18 1022 10 16.09344 0 0
6:55 am 06:55 Cloudy 32 0 29 -1.6 89 89 N 14 22 30.18 1022 10 16.09344 0 0
7:15 am 07:15 Cloudy 32 0 29 -1.9 87 87 NNW 21 33 30.18 1022 10 16.09344 0 0
7:35 am 07:35 Cloudy 32 -0.1 29 -1.8 88 88 N 18 30 30.18 1022 10 16.09344 0 0
7:55 am 07:55 Cloudy 32 -0.1 28 -2 87 87 N 21 33 30.18 1022 10 16.09344 0 0
8:15 am 08:15 Cloudy 31 -0.5 27 -2.6 86 86 N 17 28 30.21 1023 10 16.09344 0 0
8:35 am 08:35 Cloudy 31 -0.5 28 -2.5 87 87 N 17 28 30.18 1022 10 16.09344 0 0
8:55 am 08:55 Cloudy 31 -0.3 28 -2.1 88 88 N 10 17 30.21 1023 10 16.09344 0 0
9:15 am 09:15 Cloudy 31 -0.3 28 -2.3 87 87 N 18 30 30.21 1023 10 16.09344 0 0
9:35 am 09:35 Cloudy 31 -0.6 26 -3.2 83 83 N 20 31 30.24 1024 10 16.09344 0 0
9:55 am 09:55 Cloudy 31 -0.6 27 -3 84 84 N 13 20 30.27 1025 10 16.09344 0 0
10:15 am 10:15 Cloudy 31 -0.5 27 -2.8 85 85 N 16 26 30.27 1025 10 16.09344 0 0
10:35 am 10:35 Cloudy 32 -0.1 28 -2.3 85 85 N 14 22 30.27 1025 10 16.09344 0 0
10:55 am 10:55 Cloudy 31 -0.3 27 -2.6 85 85 N 16 26 30.27 1025 10 16.09344 0 0
11:15 am 11:15 Cloudy 32 -0.1 28 -2.5 84 84 N 14 22 30.27 1025 10 16.09344 0 0
11:35 am 11:35 Cloudy 32 0 28 -2.2 85 85 NNW 16 26 30.27 1025 10 16.09344 0 0
11:55 am 11:55 Cloudy 32 0.1 29 -1.9 87 87 NNW 13 20 30.27 1025 10 16.09344 0 0
12:15 pm 12:15 Cloudy 32 0 28 -2.5 83 83 NNW 15 24 30.27 1025 10 16.09344 0 0
12:35 pm 12:35 Cloudy 32 0.2 27 -2.9 80 80 N 16 26 30.27 1025 10 16.09344 0 0
12:55 pm 12:55 Mostly Cloudy 34 0.9 28 -2.3 79 79 N 16 26 30.27 1025 10 16.09344 0 0
1:15 pm 13:15 Cloudy 34 0.9 27 -2.9 76 76 N 15 24 30.27 1025 10 16.09344 0 0
1:35 pm 13:35 Mostly Cloudy 33 0.7 27 -2.6 79 79 N 9 15 30.27 1025 10 16.09344 0 0
1:55 pm 13:55 Cloudy 35 1.4 27 -2.7 74 74 N 10 17 30.27 1025 10 16.09344 0 0
2:15 pm 14:15 Mostly Cloudy 34 1.3 27 -2.9 74 74 N 10 17 30.27 1025 10 16.09344 0 0
2:35 pm 14:35 Partly Cloudy 35 1.5 27 -2.7 74 74 N 12 19 30.24 1024 10 16.09344 0 0
2:55 pm 14:55 Partly Cloudy 35 1.9 27 -3 70 70 N 12 19 30.21 1023 10 16.09344 0 0
3:15 pm 15:15 Partly Cloudy 36 2.3 28 -2.5 71 71 N 13 20 30.21 1023 10 16.09344 0 0
3:35 pm 15:35 Sunny 35 1.5 26 -3.4 70 70 N 13 20 30.24 1024 10 16.09344 0 0
3:55 pm 15:55 Partly Cloudy 34 1.2 25 -3.7 70 70 N 10 17 30.27 1025 10 16.09344 0 0
4:15 pm 16:15 Mostly Cloudy 34 1.1 26 -3.1 74 74 N 8 13 30.27 1025 10 16.09344 0 0
4:35 pm 16:35 Cloudy 34 1 26 -3.5 72 72 N 8 13 30.27 1025 10 16.09344 0 0
4:55 pm 16:55 Cloudy 33 0.8 26 -3.2 75 75 N 9 15 30.27 1025 10 16.09344 0 0
5:15 pm 17:15 Cloudy 33 0.5 26 -3.1 77 77 NNE 6 9 30.27 1025 10 16.09344 0 0
5:35 pm 17:35 Mostly Cloudy 32 0 26 -3.1 80 80 NNE 7 11 30.27 1025 10 16.09344 0 0
5:55 pm 17:55 Cloudy 32 0 26 -3.6 77 77 N 7 11 30.27 1025 10 16.09344 0 0
6:15 pm 18:15 Mostly Cloudy 32 -0.1 25 -4.1 75 75 NNE 8 13 30.27 1025 10 16.09344 0 0
6:35 pm 18:35 Cloudy 32 -0.2 24 -4.3 74 74 NNE 7 11 30.27 1025 10 16.09344 0 0
6:55 pm 18:55 Cloudy 31 -0.3 25 -4 76 76 NNE 5 7 30.27 1025 10 16.09344 0 0
7:15 pm 19:15 Cloudy 31 -0.5 25 -4.1 77 77 N 3 6 30.3 1026 10 16.09344 0 0
7:35 pm 19:35 Cloudy 31 -0.5 25 -4.1 77 77 N 6 9 30.3 1026 10 16.09344 0 0
7:55 pm 19:55 Cloudy 31 -0.5 24 -4.4 75 75 N 10 17 30.3 1026 10 16.09344 0 0
8:15 pm 20:15 Cloudy 31 -0.5 23 -5.2 71 71 N 10 17 30.3 1026 10 16.09344 0 0
8:35 pm 20:35 Cloudy 31 -0.7 22 -5.8 69 69 NNE 8 13 30.33 1027 10 16.09344 0 0
8:55 pm 20:55 Cloudy 31 -0.8 22 -5.4 71 71 NNE 7 11 30.36 1028 10 16.09344 0 0
9:15 pm 21:15 Cloudy 30 -1 22 -5.6 71 71 NNE 7 11 30.36 1028 10 16.09344 0 0
9:35 pm 21:35 Cloudy 30 -1.1 23 -5 75 75 NE 7 11 30.36 1028 10 16.09344 0 0
9:55 pm 21:55 Cloudy 30 -1.1 23 -5.1 75 75 NE 7 11 30.36 1028 10 16.09344 0 0
10:15 pm 22:15 Cloudy 30 -1.3 22 -5.5 73 73 NNE 8 13 30.36 1028 10 16.09344 0 0
10:35 pm 22:35 Cloudy 29 -1.5 22 -5.5 74 74 NNE 10 17 30.36 1028 10 16.09344 0 0
10:55 pm 22:55 Cloudy 29 -1.5 22 -5.4 75 75 NNE 7 11 30.36 1028 10 16.09344 0 0
11:15 pm 23:15 Cloudy 29 -1.5 23 -5.1 77 77 N 8 13 30.36 1028 10 16.09344 0 0
11:35 pm 23:35 Cloudy 29 -1.5 22 -5.4 75 75 N 7 11 30.36 1028 10 16.09344 0 0
11:55 pm 23:55 Cloudy 29 -1.6 22 -5.5 75 75 NNE 7 11 30.36 1028 10 16.09344 0 0

Powered by AerisWeather